Location: St. Louis
(38.6270°N, 90.1994°W)
Time: 11:02:41
(UTC-06:00)

Altair - Pass Details

Date: 04 December 2021
Orbit: 1501 x 1683 km, 47.2° (Epoch: 25 January)

Event Time Altitude Azimuth Distance (km) Brightness Sun altitude
Rises 23:56:08 0° 292° (WNW) 4,635 - -73.6°
Reaches altitude 10° 00:00:12 10° 276° (W) 3,651 - -73.5°
Maximum altitude 00:06:11 20° 234° (SW) 2,969 - -73.3°
Drops below altitude 10° 00:12:15 10° 192° (SSW) 3,682 - -73.0°
Sets 00:16:25 0° 176° (S) 4,687 - -72.8°
